Location: Unspecified
(40.7945°N, 111.1337°W)
Time: 18:11:11
(UTC-06:00)

Vanguard 3 - All Passes

Search period start: 26 June 2019 00:00
Search period end: 06 July 2019 00:00
Orbit: 508 x 3263 km, 33.3° (Epoch: 25 June)

Date Brightness Start Highest point End Pass type
(mag) Time Alt. Az. Time Alt. Az. Time Alt. Az.
26 Jun - 07:20:00 10° SSE 07:23:43 11° SE 07:27:17 10° SE daylight
26 Jun - 09:22:56 10° SSW 09:38:00 31° SSE 09:48:58 10° E daylight
26 Jun - 11:36:35 10° SW 11:52:16 51° SSE 12:01:39 10° E daylight
26 Jun - 13:53:07 10° WSW 14:05:33 55° S 14:12:29 10° ESE daylight
26 Jun - 16:09:43 10° W 16:17:07 30° SSW 16:21:51 10° SSE daylight
27 Jun - 08:09:07 10° S 08:22:18 23° SE 08:33:10 10° E daylight
27 Jun - 10:20:08 10° SW 10:36:49 44° SSE 10:47:48 10° E daylight
27 Jun - 12:35:55 10° WSW 12:50:53 58° S 12:59:24 10° E daylight
27 Jun - 14:52:54 10° W 15:03:29 45° SSW 15:09:36 10° SE daylight
27 Jun - 17:10:22 10° WSW 17:14:01 14° SW 17:16:56 10° S daylight
28 Jun - 06:58:11 10° SSE 07:06:41 14° SE 07:14:33 10° ESE daylight
28 Jun - 09:04:35 10° SSW 09:21:02 36° SSE 09:33:14 10° E daylight
28 Jun - 11:18:46 10° WSW 11:35:39 55° S 11:45:54 10° E daylight
28 Jun - 13:35:42 10° W 13:49:15 57° S 13:56:50 10° ESE daylight
28 Jun - 15:52:50 10° W 16:00:54 29° SSW 16:06:03 10° SSE daylight
29 Jun - 07:50:25 10° SSW 08:05:11 27° SE 08:17:34 10° E daylight
29 Jun - 10:02:09 10° SW 10:19:56 49° SSE 10:31:56 10° E daylight
29 Jun - 12:18:18 10° WSW 12:34:22 61° S 12:43:38 10° ESE daylight
29 Jun - 14:35:39 10° W 14:47:13 45° SSW 14:53:53 10° SE daylight
29 Jun - 16:53:59 10° WSW 16:57:42 14° SW 17:00:43 10° SSW daylight
30 Jun - 06:38:28 10° S 06:49:29 18° SE 06:59:46 10° ESE daylight
30 Jun - 08:46:28 10° SSW 09:03:56 41° SSE 09:17:18 10° E daylight
30 Jun - 11:01:01 10° WSW 11:18:54 59° S 11:30:03 10° E daylight
30 Jun - 13:18:14 10° W 13:32:50 57° SSW 13:41:06 10° ESE daylight
30 Jun - 15:35:50 10° W 15:44:34 28° SW 15:50:10 10° SSE daylight
01 Jul - 07:32:06 10° SSW 07:47:55 31° SE 08:01:39 10° E daylight
01 Jul - 09:44:19 10° SW 10:02:56 54° SSE 10:15:56 10° E daylight
01 Jul - 12:00:40 10° WSW 12:17:45 63° S 12:27:50 10° ESE daylight
01 Jul - 14:18:19 10° W 14:30:49 44° SSW 14:38:05 10° SE daylight
01 Jul - 16:37:35 10° WSW 16:41:18 13° SW 16:44:21 10° SSW daylight
02 Jul - 06:19:36 10° S 06:32:11 21° SE 06:44:15 10° E daylight
02 Jul - 08:28:35 10° SW 08:46:43 45° SSE 09:01:11 10° E daylight
02 Jul - 10:43:20 10° WSW 11:02:01 63° S 11:14:06 10° E daylight
02 Jul - 13:00:43 10° W 13:16:18 57° SSW 13:25:18 10° ESE daylight
02 Jul - 15:18:45 10° W 15:28:07 27° SW 15:34:12 10° SSE daylight
03 Jul - 05:11:53 10° SE 05:16:51 11° SE 05:21:52 10° ESE visible
03 Jul - 07:14:05 10° SSW 07:30:33 35° SE 07:45:29 10° E daylight
03 Jul - 09:26:38 10° SW 09:45:49 58° SSE 09:59:50 10° E daylight
03 Jul - 11:43:05 10° W 12:01:01 64° S 12:11:56 10° ESE daylight
03 Jul - 14:00:56 10° W 14:14:17 43° SSW 14:22:12 10° SE daylight
03 Jul - 16:21:12 10° WSW 16:24:47 12° SW 16:27:47 10° SSW daylight
04 Jul - 06:01:16 10° S 06:14:45 25° SE 06:28:16 10° E daylight
04 Jul - 08:10:54 10° SW 08:29:23 49° SSE 08:44:55 10° E daylight
04 Jul - 10:25:45 10° WSW 10:45:02 65° S 10:58:04 10° E daylight
04 Jul - 12:43:10 10° W 12:59:38 57° SSW 13:09:24 10° ESE daylight
04 Jul - 15:01:37 10° W 15:11:33 26° SW 15:18:07 10° SSE daylight
05 Jul - 04:51:38 10° SSE 04:59:30 14° SE 05:07:42 10° ESE visible
05 Jul - 06:56:23 10° SSW 07:13:06 39° SSE 07:29:06 10° E daylight
05 Jul - 09:09:07 10° WSW 09:28:35 61° SSE 09:43:37 10° E daylight
05 Jul - 11:25:31 10° W 11:44:09 65° S 11:55:57 10° ESE daylight
05 Jul - 13:43:29 10° W 13:57:37 42° SSW 14:06:14 10° SE daylight
05 Jul - 16:04:56 10° WSW 16:08:09 12° SW 16:10:56 10° SW daylight
